Regional Weather Roundup
Issued by NWS

Home | Current Version | Previous Version | Text Only | Print | Product List | Glossary On
Versions: 1 2 3 4 5 6 7 8 9 10 11 12 13 14 15 16 17 18 19 20 21 22 23 24 25 26 27 28 29 30 31 32 33 34 35 36 37 38 39 40 41 42 43 44 45 46 47 48 49 50
000
ASUS43 KDTX 070701
RWRMI
MICHIGAN HOURLY REGIONAL WEATHER ROUNDUP
NATIONAL WEATHER SERVICE DETROIT/PONTIAC MI
200 AM EST SUN FEB 07 2016

NOTE: "FAIR" INDICATES FEW OR NO CLOUDS BELOW 12,000 FEET WITH NO
SIGNIFICANT WEATHER AND/OR OBSTRUCTION TO VISIBILITY.

MIZ047>049-052>055-059>063-066>070-074>076-081>083-070800-
SOUTHEAST LOWER MICHIGAN

CITY           SKY/WX    TMP DP  RH WIND       PRES   REMARKS
ADRIAN         MOCLDY    29  25  85 SW6       30.10F WCI  23
ALMA           CLOUDY    33  29  87 SW7       30.03F WCI  27
ANN ARBOR      MOCLDY    29  24  82 S6        30.08F WCI  23
BAD AXE        CLOUDY    32  25  74 S7        30.05S WCI  26
CARO           CLOUDY    32  26  76 SW8       30.04F WCI  25
DETROIT CITY   CLOUDY    34  25  69 SW7       30.10F WCI  28
DETROIT        CLOUDY    29  24  82 S7        30.10F WCI  22
FLINT          MOCLDY    36  26  67 S8        30.06F WCI  30
GROSSE ILE     PTCLDY    34  27  75 S5        30.09F WCI  30
HILLSDALE      MOCLDY    30  26  84 S6        30.06F WCI  24
HOWELL         CLOUDY    33  27  77 S6        30.05F WCI  28

CITY           SKY/WX    TMP DP  RH WIND       PRES   REMARKS
JACKSON        CLOUDY    33  25  72 S7        30.05F WCI  27
LAMBERTVILLE   CLEAR     30  24  79 S6        30.11F WCI  24
LANSING        CLOUDY    33  27  78 SW10      30.05F WCI  25
LAPEER         MOCLDY    33  27  77 SW7       30.06S WCI  27
MASON          CLOUDY    32  28  83 S3        30.05F
MONROE         CLEAR     32  25  76 SW5       30.10F WCI  27
MT. CLEMENS    CLOUDY    34  26  71 SW7       30.08S WCI  28
PONTIAC        CLOUDY    32  24  72 SW5       30.06F WCI  27
PORT HOPE        N/A     33  25  72 CALM      30.03F
PORT HURON     CLOUDY    32  27  80 S7        30.09F WCI  26
TRI CITIES     CLOUDY    34  25  69 S7        30.04F WCI  28
MIDLAND        MOCLDY    32  26  78 CALM      30.03F
TROY           CLOUDY    34  26  70 SW6       30.10F WCI  29
SAGINAW HB     CLOUDY    34  30  86 S8        30.04F WCI  27
$$
MIZ043>046-050>051-056>058-064>065-071>073-077>080-070800-
SOUTHWEST LOWER MICHIGAN

CITY           SKY/WX    TMP DP  RH WIND       PRES   REMARKS
BATTLE CREEK   PTCLDY    33  27  78 S10       30.04F WCI  25
BENTON HARBOR  PTCLDY    36  28  73 S8        30.04F WCI  30
BIG RAPIDS     CLOUDY    32  31  96 S3        29.98F
COLDWATER      CLOUDY    33  27  76 S5        30.06F WCI  29
FREMONT        CLOUDY    32  32 100 S5        30.00F FOG     WCI  27
HOLLAND        PTCLDY    31  27  85 S6        30.03F WCI  25
GRAND RAPIDS   CLOUDY    32  28  85 S6        30.03F WCI  26
IONIA          FAIR      33  28  80 S9        30.02F WCI  25
KALAMAZOO      PTCLDY    32  26  78 S7        30.04F WCI  26
LUDINGTON      CLOUDY    35  32  88 SW12G18   29.97F WCI  27
MARSHALL       CLOUDY    33  27  77 S5        30.05F WCI  28
MOUNT PLEASANT CLOUDY    32  27  83 CALM      30.01F
MUSKEGON       PTCLDY    36  32  85 S9        30.01F WCI  29
SOUTH HAVEN    CLOUDY    34  29  81 S5        30.04F WCI  30
$$
MIZ016>042-070800-
NORTHERN LOWER MICHIGAN

CITY           SKY/WX    TMP DP  RH WIND       PRES   REMARKS
ALPENA         CLOUDY    28  23  81 S6        29.99F WCI  22
BEAVER ISLAND  CLOUDY    35  31  86 SW10      29.91F WCI  27
BELLAIRE       MOCLDY    31  26  84 CALM      29.96F
CADILLAC       CLOUDY    31  29  92 SW13      29.94F WCI  22
CHARLEVOIX     CLOUDY    32  28  84 S7        29.97F WCI  25
FRANKFORT      CLOUDY    33  30  88 S8        29.95F WCI  26
GAYLORD        CLOUDY    29  24  82 S9        29.93F WCI  20
GRAYLING       MOCLDY    29  26  87 S5        29.96F WCI  24
HARBOR SPRINGS CLOUDY    31  27  84 SW6       29.94F WCI  25
HOUGHTON LAKE  CLOUDY    30  26  85 S7        29.97F WCI  23
MANISTEE       CLOUDY    30  27  86 CALM      29.97F
OSCODA         CLOUDY    31  27  83 SW7       30.01S WCI  24
PELLSTON       MOCLDY    30  25  81 VRB3      29.94F
ROGERS CITY    CLOUDY    28  24  83 SE3       29.99S
TRAVERSE CITY  CLOUDY    33  27  78 S6        29.94F WCI  28
$$
MIZ007>008-015-070800-
EASTERN UPPER MICHIGAN

CITY           SKY/WX    TMP DP  RH WIND       PRES   REMARKS
KINROSS        CLOUDY    28  27  93 S7        29.91F WCI  21
MACKINAC ISLAN CLOUDY    30  27  88 S8        29.93F WCI  22
NEWBERRY       LGT SNOW  31  30  97 S10       29.87F WCI  22
S. S. MARIE    LGT SNOW  28  25  88 SE6       29.91F FOG     WCI  22
$$
MIZ004>006-011>014-085-070800-
CENTRAL UPPER MICHIGAN

CITY           SKY/WX    TMP DP  RH WIND       PRES   REMARKS
MANISTIQUE     LGT SNOW  32  28  86 SW10G21   29.87F WCI  24
ESCANABA       CLOUDY    30  27  86 S14G22    29.85F WCI  20
MENOMINEE      CLOUDY    28  25  86 SW12G18   29.86F WCI  18
SAWYER-GWINN   LGT SNOW  27  26  95 S17       29.75F WCI  14
$$
MIZ001>003-009>011-084-070800-
WESTERN UPPER MICHIGAN

CITY           SKY/WX    TMP DP  RH WIND       PRES   REMARKS
IRON MOUNTAIN  LGT SNOW  29  25  85 S10       29.76F FOG     WCI  20
HOUGHTON       LGT SNOW  29  27  92 SE6       29.68F FOG     WCI  23
COPPER HARBOR    N/A     31  29  92 SW9       29.70F WCI  23
IRONWOOD       CLOUDY    30  27  86 SW14G25   29.62F WCI  20
$$

ABBREVIATIONS USED IN REMARKS
   TC - TEMPERATURE IN CELSIUS
  WCI - WIND CHILL INDEX
   HX - HEAT INDEX
  VSB - VISIBILITY




USA.gov is the U.S. government's official web portal to all federal, state and local government web resources and services.